VA5EVR-13 Weather Reports


Display with metric or nautical units.
time (UTC)temp
F
wind
direction
speed
MPH
gust
MPH
rain 1hr
in
rain 24hr
in
rain mn
in
humidity
%
barometer
mb
20260509113011 21 315 2.0 2.0 0.00 0.00 0.00 88 88.8
20260509112011 21 90 0.0 0.0 0.00 0.00 0.00 87 88.8
20260509111012 21 292 0.0 0.0 0.00 0.00 0.00 87 88.8
20260509110012 21 292 0.0 0.0 0.00 0.00 0.00 87 88.8
20260509105011 22 292 3.0 3.0 0.00 0.00 0.00 88 88.8
20260509104012 22 292 0.0 0.0 0.00 0.00 0.00 87 88.8
20260509103012 22 270 0.0 0.0 0.00 0.00 0.00 86 88.8
20260509102012 23 315 0.0 0.0 0.00 0.00 0.00 86 88.8
20260509100011 23 0 0.0 0.0 0.00 0.00 0.00 84 88.8
20260509095011 24 315 0.0 0.0 0.00 0.00 0.00 85 88.8
20260509094012 24 292 0.0 0.0 0.00 0.00 0.00 84 88.8
20260509093012 25 338 0.0 0.0 0.00 0.00 0.00 82 88.8
20260509092012 25 292 0.0 0.0 0.00 0.00 0.00 82 88.8
20260509085012 26 338 2.0 2.0 0.00 0.00 0.00 84 88.8
20260509084012 26 315 0.0 0.0 0.00 0.00 0.00 84 88.8
20260509083011 27 270 0.0 0.0 0.00 0.00 0.00 83 88.8
20260509082012 28 22 0.0 0.0 0.00 0.00 0.00 83 88.8
20260509081012 29 45 0.0 0.0 0.00 0.00 0.00 83 88.8
20260509080011 30 22 2.0 2.0 0.00 0.00 0.00 84 88.8
20260509075011 30 22 4.0 4.0 0.00 0.00 0.00 85 88.8
20260509074012 30 22 4.0 4.0 0.00 0.00 0.00 86 88.8
20260509073011 31 45 3.0 3.0 0.00 0.00 0.00 82 88.8
20260509072012 32 68 0.0 0.0 0.00 0.00 0.00 82 88.8
20260509071013 33 22 3.0 3.0 0.00 0.00 0.00 82 88.8
20260509070012 33 45 3.0 3.0 0.00 0.00 0.00 81 88.8
20260509065012 34 68 3.0 3.0 0.00 0.00 0.00 81 88.8
20260509064012 34 45 3.0 3.0 0.00 0.00 0.00 81 88.8
20260509063011 35 68 4.0 4.0 0.00 0.00 0.00 81 88.8
20260509062011 36 68 6.0 6.0 0.00 0.00 0.00 82 88.8
20260509061012 36 68 5.0 5.0 0.00 0.00 0.00 82 88.8
20260509060011 36 68 6.0 6.0 0.00 0.00 0.00 81 88.8
20260509055011 36 68 8.0 8.0 0.00 0.00 0.00 82 88.8
20260509054012 36 68 7.0 7.0 0.00 0.00 0.00 82 88.8
20260509053011 37 45 6.0 6.0 0.00 0.00 0.00 81 88.8
20260509052012 38 68 4.0 4.0 0.00 0.00 0.00 80 88.8
20260509051012 39 68 6.0 6.0 0.00 0.00 0.00 77 88.8
20260509045012 41 68 7.0 7.0 0.00 0.00 0.00 73 88.8
20260509044012 41 45 10.0 10.0 0.00 0.00 0.00 71 88.8
20260509043012 40 45 9.0 9.0 0.00 0.00 0.00 71 88.8
20260509042012 40 45 8.0 8.0 0.00 0.00 0.00 72 88.8
20260509041012 40 45 8.0 8.0 0.00 0.00 0.00 72 88.8
20260509040011 40 45 5.0 5.0 0.00 0.00 0.00 72 88.8
20260509035011 40 45 5.0 5.0 0.00 0.00 0.00 72 88.8
20260509034012 41 68 3.0 3.0 0.00 0.00 0.00 72 88.8
20260509033012 43 22 3.0 3.0 0.00 0.00 0.00 70 88.8
20260509032011 44 22 3.0 3.0 0.00 0.00 0.00 67 88.8
20260509031011 45 68 3.0 3.0 0.00 0.00 0.00 66 88.8
20260509030012 46 90 5.0 5.0 0.00 0.00 0.00 63 88.8
20260509025011 48 90 8.0 8.0 0.00 0.00 0.00 62 88.8
20260509024012 49 68 10.0 10.0 0.00 0.00 0.00 60 88.8
20260509023012 50 68 12.0 12.0 0.00 0.00 0.00 59 88.8
20260509022013 51 68 12.0 12.0 0.00 0.00 0.00 58 88.8
20260509021011 52 68 15.0 15.0 0.00 0.00 0.00 56 88.8
20260509020011 53 45 17.0 17.0 0.00 0.00 0.00 55 88.8
20260509014011 55 45 11.0 11.0 0.00 0.00 0.00 52 88.8
20260509013012 56 45 17.0 17.0 0.00 0.00 0.00 51 88.8
20260509012012 58 68 16.0 16.0 0.00 0.00 0.00 51 88.8
20260509011011 59 68 18.0 18.0 0.00 0.00 0.00 50 88.8
20260509010011 60 22 18.0 18.0 0.00 0.00 0.00 50 88.8
20260509005011 61 22 16.0 16.0 0.00 0.00 0.00 50 88.8
20260509004012 61 45 17.0 17.0 0.00 0.00 0.00 50 88.8
20260509003012 61 22 14.0 14.0 0.00 0.00 0.00 50 88.8
20260509002012 62 22 19.0 19.0 0.00 0.00 0.00 50 88.8
20260509001012 61 22 16.0 16.0 0.00 0.00 0.00 50 88.8
20260508235011 61 45 21.0 21.0 0.00 0.00 0.00 48 88.8
20260508233012 62 68 21.0 21.0 0.00 0.00 0.00 48 88.8
20260508231011 62 22 17.0 17.0 0.00 0.00 0.00 45 88.8
20260508230011 62 22 19.0 19.0 0.00 0.00 0.00 44 88.8
20260508225012 63 22 9.0 9.0 0.00 0.00 0.00 41 88.8
20260508224011 62 22 12.0 12.0 0.00 0.00 0.00 42 88.8
20260508223011 63 0 16.0 16.0 0.00 0.00 0.00 42 88.8
20260508222012 62 22 18.0 18.0 0.00 0.00 0.00 43 88.8
20260508221011 62 0 13.0 13.0 0.00 0.00 0.00 44 88.8
20260508220011 62 22 22.0 22.0 0.00 0.00 0.00 44 88.8
20260508215012 62 45 17.0 17.0 0.00 0.00 0.00 45 88.8
20260508214011 63 45 20.0 20.0 0.00 0.00 0.00 45 88.8
20260508212013 64 0 21.0 21.0 0.00 0.00 0.00 44 88.8
20260508211011 64 45 20.0 20.0 0.00 0.00 0.00 43 88.8
20260508210011 64 22 23.0 23.0 0.00 0.00 0.00 43 88.8
20260508205011 64 22 19.0 19.0 0.00 0.00 0.00 46 88.8
20260508204012 63 22 21.0 21.0 0.00 0.00 0.00 46 88.8
20260508203012 65 45 20.0 20.0 0.00 0.00 0.00 43 88.8
20260508202013 65 22 12.0 12.0 0.00 0.00 0.00 43 88.8
20260508201011 64 0 16.0 16.0 0.00 0.00 0.00 44 88.8
20260508200011 64 22 22.0 22.0 0.00 0.00 0.00 42 88.8
20260508195012 63 22 13.0 13.0 0.00 0.00 0.00 44 88.8
20260508194011 63 22 19.0 19.0 0.00 0.00 0.00 44 88.8
20260508193012 63 22 19.0 19.0 0.00 0.00 0.00 43 88.8
20260508192012 63 22 17.0 17.0 0.00 0.00 0.00 42 88.8
20260508191012 64 22 18.0 18.0 0.00 0.00 0.00 41 88.8
20260508185011 65 338 17.0 17.0 0.00 0.00 0.00 39 88.8
20260508184012 67 315 17.0 17.0 0.00 0.00 0.00 37 88.8
20260508183012 68 270 14.0 14.0 0.00 0.00 0.00 37 88.8
20260508182012 68 315 18.0 18.0 0.00 0.00 0.00 37 88.8
20260508181011 68 338 14.0 14.0 0.00 0.00 0.00 36 88.8
20260508180011 68 270 10.0 10.0 0.00 0.00 0.00 36 88.8
20260508175011 68 270 15.0 15.0 0.00 0.00 0.00 36 88.8
20260508174012 69 292 18.0 18.0 0.00 0.00 0.00 36 88.8
20260508173011 69 22 16.0 16.0 0.00 0.00 0.00 35 88.8
20260508172011 69 22 14.0 14.0 0.00 0.00 0.00 36 88.8
20260508171012 69 292 11.0 11.0 0.00 0.00 0.00 36 88.8
20260508170012 69 315 13.0 13.0 0.00 0.00 0.00 36 88.8
20260508165011 68 270 10.0 10.0 0.00 0.00 0.00 38 88.8
20260508162011 65 292 12.0 12.0 0.00 0.00 0.00 39 88.8
20260508161012 65 248 10.0 10.0 0.00 0.00 0.00 40 88.8
20260508160012 63 292 15.0 15.0 0.00 0.00 0.00 42 88.8
20260508155012 63 270 13.0 13.0 0.00 0.00 0.00 42 88.8
20260508154012 62 292 15.0 15.0 0.00 0.00 0.00 43 88.8
20260508153011 62 270 16.0 16.0 0.00 0.00 0.00 44 88.8
20260508152012 62 270 16.0 16.0 0.00 0.00 0.00 44 88.8
20260508151012 62 270 20.0 20.0 0.00 0.00 0.00 45 88.8
20260508150012 62 270 20.0 20.0 0.00 0.00 0.00 47 88.8
20260508145011 62 292 19.0 19.0 0.00 0.00 0.00 47 88.8
20260508144011 62 270 19.0 19.0 0.00 0.00 0.00 46 88.8
20260508143012 61 248 22.0 22.0 0.00 0.00 0.00 46 88.8
20260508141012 59 270 17.0 17.0 0.00 0.00 0.00 50 88.8
20260508140012 58 270 13.0 13.0 0.00 0.00 0.00 52 88.8
20260508135012 56 270 14.0 14.0 0.00 0.00 0.00 56 88.8
20260508134011 54 270 16.0 16.0 0.00 0.00 0.00 58 88.8
20260508133013 54 270 16.0 16.0 0.00 0.00 0.00 59 88.8
20260508132012 53 270 16.0 16.0 0.00 0.00 0.00 60 88.8
20260508131012 51 270 13.0 13.0 0.00 0.00 0.00 60 88.8
20260508130011 49 270 13.0 13.0 0.00 0.00 0.00 61 88.8
20260508125011 48 270 17.0 17.0 0.00 0.00 0.00 61 88.8
20260508124011 46 225 14.0 14.0 0.00 0.00 0.00 64 88.8
20260508123011 44 248 11.0 11.0 0.00 0.00 0.00 67 88.8
20260508122011 44 270 10.0 10.0 0.00 0.00 0.00 69 88.8
20260508121012 43 270 8.0 8.0 0.00 0.00 0.00 72 88.8
20260508115012 41 248 9.0 9.0 0.00 0.00 0.00 75 88.8
20260508114011 41 248 9.0 9.0 0.00 0.00 0.00 75 88.8